• In Kazakhstan
  • List of Countries
  • For 7 days
  • Water Temperature
  • Weather Map
  • News
  • Weather Widgets
  • user-avatar
    Login

    Hourly Weather Larisa

    Today, 19 January, Sunday

    Time Temperature Precipitation Wind Pressure Humidity
    00:00 +7°C° 0 mm 1 mps 760 mmHg 76%
    01:00 +7°C° 0 mm 1 mps 760 mmHg 77%
    02:00 +6°C° 0 mm 0 mps 760 mmHg 76%
    03:00 +6°C° 0 mm 0 mps 759 mmHg 76%
    04:00 +6°C° 0 mm 0 mps 759 mmHg 75%
    05:00 +6°C° 0 mm 0 mps 759 mmHg 75%
    06:00 +6°C° 0 mm 0 mps 759 mmHg 74%
    07:00 +6°C° 0 mm 0 mps 760 mmHg 73%
    08:00 +6°C° 0 mm 0 mps 760 mmHg 70%
    09:00 +7°C° 0 mm 0 mps 760 mmHg 66%
    10:00 +8°C° 0 mm 0 mps 760 mmHg 63%
    11:00 +8°C° 0 mm 0 mps 760 mmHg 62%
    12:00 +9°C° 0 mm 1 mps 760 mmHg 61%
    13:00 +10°C° 0 mm 1 mps 759 mmHg 61%
    14:00 +8°C° 0 mm 0 mps 760 mmHg 63%
    15:00 +8°C° 0 mm 0 mps 760 mmHg 65%
    16:00 +8°C° 0 mm 0 mps 760 mmHg 68%
    17:00 +7°C° 0 mm 0 mps 761 mmHg 71%
    18:00 +7°C° 0 mm 0 mps 761 mmHg 74%
    19:00 +6°C° 0 mm 0 mps 762 mmHg 77%
    20:00 +6°C° 0 mm 0 mps 763 mmHg 78%
    21:00 +5°C° 0 mm 0 mps 763 mmHg 79%
    22:00 +5°C° 0 mm 0 mps 764 mmHg 80%
    23:00 +5°C° 0 mm 0 mps 764 mmHg 80%

    Tomorrow, 20 January, Monday

    Time Temperature Precipitation Wind Pressure Humidity
    00:00 +6°C° 0 mm 0 mps 765 mmHg 80%
    01:00 +7°C° 0 mm 1 mps 765 mmHg 80%
    02:00 +7°C° 0 mm 1 mps 765 mmHg 81%
    03:00 +6°C° 0 mm 1 mps 766 mmHg 83%
    04:00 +6°C° 0 mm 1 mps 766 mmHg 85%
    05:00 +6°C° 0 mm 1 mps 766 mmHg 85%
    06:00 +6°C° 0 mm 1 mps 767 mmHg 86%
    07:00 +5°C° 0 mm 1 mps 768 mmHg 86%
    08:00 +6°C° 0 mm 1 mps 768 mmHg 82%
    09:00 +7°C° 0 mm 1 mps 768 mmHg 78%
    10:00 +8°C° 0 mm 1 mps 769 mmHg 74%
    11:00 +9°C° 0 mm 1 mps 769 mmHg 71%
    12:00 +9°C° 0 mm 1 mps 769 mmHg 69%
    13:00 +10°C° 0 mm 1 mps 769 mmHg 67%
    14:00 +10°C° 0 mm 1 mps 769 mmHg 69%
    15:00 +9°C° 0 mm 1 mps 770 mmHg 71%
    16:00 +9°C° 0 mm 1 mps 770 mmHg 73%
    17:00 +8°C° 0 mm 1 mps 770 mmHg 75%
    18:00 +7°C° 0 mm 1 mps 771 mmHg 77%
    19:00 +6°C° 0 mm 1 mps 771 mmHg 79%
    20:00 +6°C° 0 mm 1 mps 772 mmHg 78%
    21:00 +6°C° 0 mm 1 mps 772 mmHg 78%
    22:00 +5°C° 0 mm 1 mps 773 mmHg 77%
    23:00 +5°C° 0 mm 1 mps 773 mmHg 77%

    Day after tomorrow, 21 January, Tuesday

    Time Temperature Precipitation Wind Pressure Humidity
    00:00 +5°C° 0 mm 1 mps 773 mmHg 77%
    01:00 +5°C° 0 mm 1 mps 773 mmHg 76%
    02:00 +4°C° 0 mm 1 mps 773 mmHg 77%
    03:00 +3°C° 0 mm 0 mps 773 mmHg 77%
    04:00 +3°C° 0 mm 0 mps 773 mmHg 77%
    05:00 +3°C° 0 mm 0 mps 773 mmHg 77%
    06:00 +3°C° 0 mm 0 mps 773 mmHg 77%
    07:00 +2°C° 0 mm 0 mps 773 mmHg 77%
    08:00 +4°C° 0 mm 0 mps 773 mmHg 72%
    09:00 +5°C° 0 mm 0 mps 773 mmHg 67%
    10:00 +8°C° 0 mm 1 mps 773 mmHg 62%
    11:00 +9°C° 0 mm 1 mps 772 mmHg 58%
    12:00 +9°C° 0 mm 1 mps 771 mmHg 55%
    13:00 +10°C° 0 mm 1 mps 771 mmHg 52%
    14:00 +10°C° 0 mm 1 mps 771 mmHg 55%
    15:00 +8°C° 0 mm 0 mps 770 mmHg 59%
    16:00 +8°C° 0 mm 0 mps 770 mmHg 62%
    17:00 +7°C° 0 mm 0 mps 770 mmHg 63%
    18:00 +6°C° 0 mm 0 mps 770 mmHg 65%
    19:00 +5°C° 0 mm 0 mps 770 mmHg 67%
    20:00 +5°C° 0 mm 0 mps 770 mmHg 67%
    21:00 +4°C° 0 mm 0 mps 770 mmHg 67%
    22:00 +5°C° 0 mm 1 mps 770 mmHg 67%
    23:00 +5°C° 0 mm 1 mps 769 mmHg 67%

    22 January, Wednesday

    Time Temperature Precipitation Wind Pressure Humidity
    00:00 +5°C° 0 mm 1 mps 769 mmHg 67%
    01:00 +4°C° 0 mm 1 mps 768 mmHg 67%
    02:00 +3°C° 0 mm 0 mps 768 mmHg 66%
    03:00 +3°C° 0 mm 0 mps 768 mmHg 66%
    04:00 +3°C° 0 mm 0 mps 767 mmHg 65%
    05:00 +2°C° 0 mm 0 mps 767 mmHg 64%
    06:00 +2°C° 0 mm 0 mps 767 mmHg 63%
    07:00 +2°C° 0 mm 0 mps 767 mmHg 62%
    08:00 +4°C° 0 mm 0 mps 766 mmHg 56%
    09:00 +6°C° 0 mm 0 mps 766 mmHg 51%
    10:00 +9°C° 0 mm 1 mps 766 mmHg 45%
    11:00 +10°C° 0 mm 1 mps 765 mmHg 44%
    12:00 +11°C° 0 mm 1 mps 765 mmHg 42%
    13:00 +12°C° 0 mm 1 mps 764 mmHg 41%
    14:00 +10°C° 0 mm 0 mps 764 mmHg 45%
    15:00 +9°C° 0 mm 0 mps 763 mmHg 49%
    16:00 +9°C° 0 mm 0 mps 763 mmHg 54%
    17:00 +8°C° 0 mm 0 mps 763 mmHg 53%
    18:00 +7°C° 0 mm 0 mps 763 mmHg 52%
    19:00 +6°C° 0 mm 0 mps 763 mmHg 52%
    20:00 +6°C° 0 mm 0 mps 762 mmHg 52%
    21:00 +5°C° 0 mm 0 mps 762 mmHg 51%
    22:00 +5°C° 0 mm 0 mps 762 mmHg 51%
    23:00 +6°C° 0 mm 1 mps 761 mmHg 51%

    23 January, Thursday

    Time Temperature Precipitation Wind Pressure Humidity
    00:00 +6°C° 0 mm 1 mps 761 mmHg 51%
    01:00 +5°C° 0 mm 1 mps 761 mmHg 51%
    02:00 +5°C° 0 mm 1 mps 760 mmHg 52%
    03:00 +5°C° 0 mm 1 mps 760 mmHg 52%
    04:00 +4°C° 0 mm 0 mps 759 mmHg 53%
    05:00 +5°C° 0 mm 1 mps 759 mmHg 52%
    06:00 +5°C° 0 mm 1 mps 759 mmHg 51%
    07:00 +5°C° 0 mm 1 mps 759 mmHg 51%
    08:00 +7°C° 0 mm 1 mps 759 mmHg 47%
    09:00 +9°C° 0 mm 1 mps 759 mmHg 44%
    10:00 +11°C° 0 mm 1 mps 760 mmHg 41%
    11:00 +12°C° 0 mm 1 mps 760 mmHg 40%
    12:00 +13°C° 0 mm 2 mps 760 mmHg 38%
    13:00 +14°C° 0 mm 2 mps 760 mmHg 37%
    14:00 +13°C° 0 mm 2 mps 761 mmHg 43%
    15:00 +11°C° 0 mm 3 mps 761 mmHg 49%
    16:00 +10°C° 0 mm 3 mps 762 mmHg 56%
    17:00 +8°C° 0 mm 3 mps 763 mmHg 60%
    18:00 +7°C° 0 mm 2 mps 763 mmHg 65%
    19:00 +6°C° 0 mm 2 mps 764 mmHg 69%
    20:00 +5°C° 0 mm 2 mps 764 mmHg 70%
    21:00 +5°C° 0 mm 2 mps 765 mmHg 70%
    22:00 +6°C° 0 mm 1 mps 766 mmHg 70%
    23:00 +5°C° 0 mm 1 mps 766 mmHg 69%

    24 January, Friday

    Time Temperature Precipitation Wind Pressure Humidity
    00:00 +5°C° 0 mm 1 mps 766 mmHg 68%
    01:00 +4°C° 0 mm 1 mps 766 mmHg 67%
    02:00 +4°C° 0 mm 1 mps 766 mmHg 68%
    03:00 +4°C° 0 mm 1 mps 767 mmHg 68%
    04:00 +4°C° 0 mm 1 mps 767 mmHg 68%
    05:00 +3°C° 0 mm 1 mps 767 mmHg 69%
    06:00 +3°C° 0 mm 1 mps 768 mmHg 70%
    07:00 +2°C° 0 mm 0 mps 768 mmHg 72%
    08:00 +5°C° 0 mm 1 mps 769 mmHg 69%
    09:00 +6°C° 0 mm 1 mps 769 mmHg 67%
    10:00 +8°C° 0 mm 1 mps 769 mmHg 64%
    11:00 +8°C° 0.1 mm 1 mps 769 mmHg 66%
    12:00 +7°C° 0.1 mm 2 mps 769 mmHg 69%
    13:00 +7°C° 0.1 mm 2 mps 769 mmHg 71%
    14:00 +7°C° 0 mm 2 mps 769 mmHg 73%
    15:00 +7°C° 0 mm 2 mps 768 mmHg 76%
    16:00 +6°C° 0 mm 2 mps 768 mmHg 79%
    17:00 +5°C° 0 mm 2 mps 769 mmHg 82%
    18:00 +5°C° 0 mm 1 mps 769 mmHg 86%
    19:00 +4°C° 0 mm 1 mps 769 mmHg 90%
    20:00 +4°C° 0 mm 1 mps 769 mmHg 89%
    21:00 +4°C° 0 mm 1 mps 770 mmHg 89%
    22:00 +3°C° 0 mm 0 mps 770 mmHg 88%
    23:00 +3°C° 0 mm 0 mps 769 mmHg 88%
    Show more